timestamp,wind_dir_avg,wind_spd_avg,wind_spd_max_dir,wind_spd_gust,battery_voltage,lat,long
2021-08-25 00:04:00+00:00,224.0,8.29,219.0,9.83,12.65,47.59359,-54.27349
2021-08-25 00:14:01+00:00,224.0,9.31,220.0,10.66,12.65,47.59359,-54.27349
2021-08-25 00:24:01+00:00,227.0,10.02,225.0,11.87,12.65,47.59359,-54.27349
2021-08-25 00:34:01+00:00,228.0,9.93,232.0,11.89,12.65,47.59359,-54.27349
2021-08-25 00:44:01+00:00,230.0,9.28,223.0,11.0,12.65,47.59359,-54.27349
2021-08-25 00:54:01+00:00,227.0,10.29,227.0,11.66,12.65,47.59359,-54.27349
2021-08-25 01:04:01+00:00,217.0,13.49,215.0,16.6,12.65,47.59359,-54.27349
2021-08-25 01:14:01+00:00,215.0,14.08,214.0,15.9,12.65,47.59359,-54.27349
2021-08-25 01:24:01+00:00,216.0,13.75,216.0,16.02,12.65,47.59359,-54.27349
2021-08-25 01:34:01+00:00,223.0,10.39,220.0,12.95,12.65,47.59359,-54.27349
2021-08-25 01:44:01+00:00,219.0,11.63,215.0,13.76,12.65,47.59359,-54.27349
2021-08-25 01:54:01+00:00,220.0,11.81,216.0,14.5,12.65,47.59359,-54.27349
2021-08-25 02:04:01+00:00,219.0,12.14,208.0,14.46,12.65,47.59359,-54.27349
2021-08-25 02:14:01+00:00,227.0,9.35,223.0,10.71,12.65,47.59359,-54.27349
2021-08-25 02:24:01+00:00,222.0,11.17,218.0,13.07,12.65,47.59359,-54.27349
2021-08-25 02:34:01+00:00,216.0,11.57,215.0,12.87,12.65,47.59359,-54.27349
2021-08-25 02:44:01+00:00,218.0,11.73,225.0,13.42,12.65,47.59359,-54.27349
2021-08-25 02:54:01+00:00,230.0,14.49,238.0,17.33,12.65,47.59359,-54.27349
2021-08-25 03:04:01+00:00,228.0,13.29,227.0,15.47,12.65,47.59359,-54.27349
2021-08-25 03:14:00+00:00,211.0,12.71,217.0,14.55,12.65,47.59359,-54.27349
2021-08-25 03:24:00+00:00,211.0,12.78,216.0,15.14,12.65,47.59359,-54.27349
2021-08-25 03:34:00+00:00,212.0,12.09,211.0,14.01,12.65,47.59359,-54.27349
2021-08-25 03:44:00+00:00,217.0,13.69,218.0,16.69,12.65,47.59359,-54.27349
2021-08-25 03:54:00+00:00,217.0,12.96,217.0,14.54,12.65,47.59359,-54.27349
2021-08-25 04:04:00+00:00,216.0,12.22,216.0,14.15,12.65,47.59359,-54.27349
2021-08-25 04:14:00+00:00,229.0,11.71,237.0,14.32,12.57,47.59359,-54.27349
2021-08-25 04:24:00+00:00,231.0,9.5,231.0,11.46,12.57,47.59359,-54.27349
2021-08-25 04:34:00+00:00,219.0,9.21,224.0,10.35,12.57,47.59359,-54.27349
2021-08-25 04:44:00+00:00,218.0,10.4,220.0,12.12,12.57,47.59359,-54.27349
2021-08-25 04:54:00+00:00,215.0,10.34,218.0,12.24,12.57,47.59359,-54.27349
2021-08-25 05:04:00+00:00,209.0,10.47,209.0,11.82,12.57,47.59359,-54.27349
2021-08-25 05:14:01+00:00,210.0,9.47,213.0,10.26,12.57,47.59359,-54.27349
2021-08-25 05:24:01+00:00,210.0,9.29,210.0,10.19,12.57,47.59359,-54.27349
2021-08-25 05:34:01+00:00,211.0,9.15,208.0,10.24,12.57,47.59359,-54.27349
2021-08-25 05:44:01+00:00,214.0,8.17,214.0,9.16,12.57,47.59359,-54.27349
2021-08-25 05:54:01+00:00,214.0,7.86,215.0,8.58,12.57,47.59359,-54.27349
2021-08-25 06:04:01+00:00,216.0,7.76,216.0,8.44,12.57,47.59359,-54.27349
2021-08-25 06:14:01+00:00,219.0,6.45,221.0,7.31,12.49,47.59359,-54.27349
2021-08-25 06:24:01+00:00,221.0,7.06,218.0,7.97,12.49,47.59359,-54.27349
2021-08-25 06:34:01+00:00,224.0,6.28,229.0,7.12,12.49,47.59359,-54.27349
2021-08-25 06:44:01+00:00,231.0,6.05,233.0,6.92,12.49,47.59359,-54.27349
2021-08-25 06:54:01+00:00,227.0,7.0,220.0,8.0,12.49,47.59359,-54.27349
2021-08-25 07:04:01+00:00,228.0,7.55,225.0,8.75,12.49,47.59359,-54.27349
2021-08-25 07:14:01+00:00,222.0,7.05,223.0,7.85,12.49,47.59359,-54.27349
2021-08-25 07:24:01+00:00,221.0,7.36,224.0,8.5,12.49,47.59359,-54.27349
2021-08-25 07:34:01+00:00,219.0,8.03,219.0,8.93,12.49,47.59359,-54.27349
2021-08-25 07:44:01+00:00,231.0,9.07,237.0,10.88,12.49,47.59359,-54.27349
2021-08-25 07:54:01+00:00,231.0,9.76,229.0,11.2,12.49,47.59359,-54.27349
2021-08-25 08:04:01+00:00,231.0,7.98,240.0,9.78,12.49,47.59359,-54.27349
2021-08-25 08:14:00+00:00,230.0,7.49,234.0,9.23,12.41,47.59359,-54.27349
2021-08-25 08:24:00+00:00,235.0,8.17,236.0,8.91,12.41,47.59359,-54.27349
2021-08-25 08:34:00+00:00,235.0,7.96,239.0,9.09,12.41,47.59359,-54.27349
2021-08-25 08:44:00+00:00,233.0,6.64,236.0,7.62,12.41,47.59359,-54.27349
2021-08-25 08:54:00+00:00,219.0,7.62,219.0,8.5,12.41,47.59359,-54.27349
2021-08-25 09:04:00+00:00,218.0,8.18,221.0,8.94,12.41,47.59359,-54.27349
2021-08-25 09:14:01+00:00,218.0,7.48,219.0,8.29,12.41,47.59359,-54.27349
2021-08-25 09:24:01+00:00,220.0,6.89,217.0,7.54,12.41,47.59359,-54.27349
2021-08-25 09:34:01+00:00,214.0,6.84,217.0,7.49,12.41,47.59359,-54.27349
2021-08-25 09:44:01+00:00,214.0,7.07,216.0,7.7,12.41,47.59359,-54.27349
2021-08-25 09:54:01+00:00,224.0,5.6,225.0,6.44,12.41,47.59359,-54.27349
2021-08-25 10:04:01+00:00,224.0,5.56,220.0,6.42,12.41,47.59359,-54.27349
2021-08-25 10:14:01+00:00,222.0,5.37,220.0,6.21,12.41,47.59359,-54.27349
2021-08-25 10:24:01+00:00,229.0,4.77,234.0,6.11,12.41,47.59359,-54.27349
2021-08-25 10:34:01+00:00,232.0,5.16,231.0,6.11,12.41,47.59359,-54.27349
2021-08-25 10:44:01+00:00,231.0,6.13,232.0,6.9,12.41,47.59359,-54.27349
2021-08-25 10:54:01+00:00,218.0,7.11,221.0,7.91,12.41,47.59359,-54.27349
2021-08-25 11:04:01+00:00,215.0,7.0,218.0,7.86,12.41,47.59359,-54.27349
2021-08-25 11:14:01+00:00,212.0,6.29,216.0,7.41,13.21,47.59359,-54.27349
2021-08-25 11:24:01+00:00,201.0,5.92,205.0,6.43,13.21,47.59359,-54.27349
2021-08-25 11:34:01+00:00,209.0,5.06,210.0,5.96,13.21,47.59359,-54.27349
2021-08-25 11:44:01+00:00,206.0,4.61,213.0,5.04,13.21,47.59359,-54.27349
2021-08-25 11:54:01+00:00,203.0,5.98,208.0,7.08,13.21,47.59359,-54.27349
2021-08-25 12:04:01+00:00,210.0,5.11,208.0,5.81,13.21,47.59359,-54.27349
2021-08-25 12:14:01+00:00,222.0,4.71,222.0,5.19,13.76,47.59359,-54.27349
2021-08-25 12:24:01+00:00,221.0,5.42,221.0,5.89,13.76,47.59359,-54.27349
2021-08-25 12:34:01+00:00,214.0,4.91,218.0,5.68,13.76,47.59359,-54.27349
2021-08-25 12:44:01+00:00,237.0,4.88,237.0,5.28,13.76,47.59359,-54.27349
2021-08-25 12:54:01+00:00,272.0,4.84,272.0,5.03,13.76,47.59359,-54.27349
2021-08-25 13:04:01+00:00,266.0,4.3,266.0,4.72,13.76,47.59359,-54.27349
2021-08-25 13:14:01+00:00,280.0,3.74,283.0,4.23,13.76,47.59359,-54.27349
2021-08-25 13:24:01+00:00,299.0,5.1,307.0,6.37,13.76,47.59359,-54.27349
2021-08-25 13:34:01+00:00,309.0,4.57,309.0,5.11,13.76,47.59359,-54.27349
2021-08-25 13:44:01+00:00,307.0,3.52,312.0,4.57,13.76,47.59359,-54.27349
2021-08-25 13:54:01+00:00,300.0,3.5,304.0,4.1,13.76,47.59359,-54.27349
2021-08-25 14:04:01+00:00,297.0,2.96,294.0,3.42,13.76,47.59359,-54.27349
2021-08-25 14:14:01+00:00,308.0,2.25,308.0,3.08,13.76,47.59359,-54.27349
2021-08-25 14:24:01+00:00,348.0,3.11,342.0,3.97,13.76,47.59359,-54.27349
2021-08-25 14:34:01+00:00,321.0,2.97,324.0,3.62,13.76,47.59359,-54.27349
2021-08-25 14:44:01+00:00,197.0,1.91,194.0,2.58,13.76,47.59359,-54.27349
2021-08-25 14:54:01+00:00,192.0,2.44,190.0,3.06,13.76,47.59359,-54.27349
2021-08-25 15:04:01+00:00,204.0,3.6,208.0,3.84,13.76,47.59359,-54.27349
2021-08-25 15:14:01+00:00,212.0,3.33,211.0,3.7,14.0,47.59359,-54.27349
2021-08-25 15:24:01+00:00,216.0,3.93,218.0,4.2,14.0,47.59359,-54.27349
2021-08-25 15:34:01+00:00,190.0,3.88,185.0,4.38,14.0,47.59359,-54.27349
2021-08-25 15:44:01+00:00,197.0,6.98,199.0,7.31,14.0,47.59359,-54.27349
2021-08-25 15:54:01+00:00,192.0,6.29,195.0,6.66,14.0,47.59359,-54.27349
2021-08-25 16:04:01+00:00,196.0,5.91,202.0,6.27,14.0,47.59359,-54.27349
2021-08-25 16:14:00+00:00,197.0,5.02,199.0,5.53,14.24,47.59359,-54.27349
2021-08-25 16:24:00+00:00,204.0,4.1,201.0,4.85,14.24,47.59359,-54.27349
2021-08-25 16:34:00+00:00,213.0,5.45,215.0,6.15,14.24,47.59359,-54.27349
2021-08-25 16:44:00+00:00,217.0,5.45,218.0,5.75,14.24,47.59359,-54.27349
2021-08-25 16:54:00+00:00,209.0,5.75,210.0,6.14,14.24,47.59359,-54.27349
2021-08-25 17:04:00+00:00,213.0,4.84,214.0,5.12,14.24,47.59359,-54.27349
2021-08-25 17:14:01+00:00,212.0,4.66,214.0,5.04,14.16,47.59359,-54.27349
2021-08-25 17:24:01+00:00,195.0,5.73,198.0,6.47,14.16,47.59359,-54.27349
2021-08-25 17:34:01+00:00,199.0,5.17,201.0,5.6,14.16,47.59359,-54.27349
2021-08-25 17:44:01+00:00,196.0,5.52,197.0,5.76,14.16,47.59359,-54.27349
2021-08-25 17:54:01+00:00,193.0,3.98,195.0,4.61,14.16,47.59359,-54.27349
2021-08-25 18:04:01+00:00,194.0,5.29,198.0,5.73,14.16,47.59359,-54.27349
2021-08-25 18:14:01+00:00,196.0,5.43,196.0,6.1,13.84,47.59359,-54.27349
2021-08-25 18:24:01+00:00,208.0,6.34,209.0,6.85,13.84,47.59359,-54.27349
2021-08-25 18:34:01+00:00,188.0,5.91,190.0,6.57,13.84,47.59359,-54.27349
2021-08-25 18:44:01+00:00,206.0,7.96,208.0,8.86,13.84,47.59359,-54.27349
2021-08-25 18:54:01+00:00,206.0,7.51,208.0,8.35,13.84,47.59359,-54.27349
2021-08-25 19:04:01+00:00,198.0,8.13,200.0,9.73,13.84,47.59359,-54.27349
2021-08-25 19:14:01+00:00,194.0,7.04,196.0,8.45,13.76,47.59359,-54.27349
2021-08-25 19:24:01+00:00,193.0,6.9,193.0,8.0,13.76,47.59359,-54.27349
2021-08-25 19:34:01+00:00,191.0,6.86,190.0,7.63,13.76,47.59359,-54.27349
2021-08-25 19:44:01+00:00,187.0,6.19,187.0,6.96,13.76,47.59359,-54.27349
2021-08-25 19:54:01+00:00,202.0,7.95,203.0,8.7,13.76,47.59359,-54.27349
2021-08-25 20:04:01+00:00,205.0,8.77,205.0,9.71,13.76,47.59359,-54.27349
2021-08-25 20:14:01+00:00,206.0,9.39,203.0,10.42,13.68,47.59359,-54.27349
2021-08-25 20:24:01+00:00,203.0,9.35,203.0,10.38,13.68,47.59359,-54.27349
2021-08-25 20:34:01+00:00,206.0,8.61,207.0,9.52,13.68,47.59359,-54.27349
2021-08-25 20:44:01+00:00,201.0,8.03,196.0,8.84,13.68,47.59359,-54.27349
2021-08-25 20:54:01+00:00,196.0,7.9,195.0,8.66,13.68,47.59359,-54.27349
2021-08-25 21:04:01+00:00,197.0,7.84,197.0,9.0,13.68,47.59359,-54.27349
2021-08-25 21:14:01+00:00,204.0,7.02,204.0,8.29,13.6,47.59359,-54.27349
2021-08-25 21:24:01+00:00,206.0,8.24,206.0,9.09,13.6,47.59359,-54.27349
2021-08-25 21:34:01+00:00,209.0,7.45,213.0,8.68,13.6,47.59359,-54.27349
2021-08-25 21:44:01+00:00,70.0,9.27,70.0,12.2,13.6,47.59359,-54.27349
2021-08-25 21:54:01+00:00,72.0,7.52,77.0,9.17,13.6,47.59359,-54.27349
2021-08-25 22:04:01+00:00,61.0,10.19,59.0,11.72,13.6,47.59359,-54.27349
2021-08-25 22:14:01+00:00,65.0,9.46,67.0,10.75,12.97,47.59359,-54.27349
2021-08-25 22:24:01+00:00,66.0,8.15,63.0,9.73,12.97,47.59359,-54.27349
2021-08-25 22:34:01+00:00,64.0,9.21,62.0,10.4,12.97,47.59359,-54.27349
2021-08-25 22:44:01+00:00,64.0,7.97,63.0,9.62,12.97,47.59359,-54.27349
2021-08-25 22:54:01+00:00,71.0,8.45,68.0,9.52,12.97,47.59359,-54.27349
2021-08-25 23:04:01+00:00,66.0,7.47,61.0,8.33,12.97,47.59359,-54.27349
2021-08-25 23:14:00+00:00,71.0,7.57,71.0,9.18,12.65,47.59359,-54.27349
2021-08-25 23:24:00+00:00,74.0,7.46,76.0,8.94,12.65,47.59359,-54.27349
2021-08-25 23:34:00+00:00,71.0,7.92,80.0,8.97,12.65,47.59359,-54.27349
2021-08-25 23:44:00+00:00,75.0,6.32,70.0,8.07,12.65,47.59359,-54.27349
2021-08-25 23:54:00+00:00,74.0,6.94,63.0,8.29,12.65,47.59359,-54.27349
